Temp
16 16 16 16 16 16 16 17 17 17 17 17 17 16 17 17 16 16 16 16 16 16 16 17 16 16 16 16 16 16 16 15 15 16 16 16 16 16 15 16 16 16 16 16 16 16 16 16 16 15 16 16 16 16 16 16 16 17 17 17 17 17 17 18 17 16 14 14 15 15 14 14 15 14 14 14 13 13 13 13 13 13 13 13 13
16 16 16 16 15 16 16 16 16 17 17 17 16 16 16 16 17 16 16 15 16 17 17 16 16 17 17 16 16 16 16 16 15 16 16 16 15 15 15 16 16 16 16 16 16 16 16 16 16 15 15 16 16 17 17 17 17 17 17 17 17 17 17 17 17 16 15 14 14 14 14 14 15 14 14 13 13 14 14 14 13 14 14 13 13
17 16 16 16 16 16 16 16 16 17 17 16 16 15 16 16 17 16 16 15 16 16 16 16 16 16 16 16 16 16 16 16 15 15 16 16 16 15 15 16 16 16 16 16 16 16 15 16 16 15 15 15 16 17 16 17 17 17 17 17 17 16 17 17 17 17 16 15 15 15 14 13 14 14 14 13 13 13 14 14 14 13 13 13 13
18 17 17 17 16 16 16 16 16 16 17 17 16 16 16 16 16 16 16 16 16 16 16 16 16 16 16 16 16 15 15 15 15 15 15 15 15 15 15 15 16 16 16 16 16 16 16 16 16 15 15 15 16 16 16 16 17 17 16 16 16 16 16 16 17 17 16 15 15 15 15 14 14 14 14 13 13 13 14 14 13 13 13 13 13
18 18 18 17 17 17 17 16 17 17 17 17 16 15 16 16 16 16 16 16 16 16 16 16 16 16 16 16 16 16 16 15 15 15 15 15 15 15 15 15 15 16 16 16 16 16 16 16 16 16 15 15 16 16 16 16 16 17 17 17 17 16 15 16 16 16 16 16 15 15 15 15 14 14 14 14 14 14 14 14 13 13 12 12 12
18 18 18 17 17 17 17 17 17 16 17 17 16 16 16 16 16 16 16 16 16 16 16 16 16 16 16 16 16 16 16 16 15 15 15 15 15 15 15 15 15 16 16 16 16 16 16 16 16 16 16 15 16 16 16 16 16 16 16 16 17 16 15 16 16 16 16 16 15 15 15 15 15 14 14 14 14 14 14 14 14 13 12 12 12
17 17 17 17 17 17 17 17 17 16 16 16 16 16 16 16 16 16 16 16 16 16 16 16 16 16 16 16 16 16 16 15 15 15 15 15 15 15 15 15 16 16 16 16 16 16 16 16 16 16 16 16 16 16 15 15 15 15 15 16 16 16 15 16 16 16 16 16 16 15 15 15 14 14 14 14 14 14 14 14 14 14 13 13 12
17 17 17 17 17 17 17 16 16 16 16 16 16 16 16 16 16 16 16 16 16 16 16 16 16 16 16 16 16 15 15 15 14 14 15 15 15 15 15 15 15 15 16 16 16 16 16 16 16 16 16 16 16 16 16 15 15 15 15 15 15 15 15 15 16 16 16 16 16 16 16 15 15 14 14 14 14 14 13 13 13 13 13 13 13
16 17 17 17 16 17 16 16 16 16 16 16 16 15 15 15 15 15 16 16 16 16 16 16 16 16 16 15 15 14 14 14 14 14 14 14 14 14 14 14 14 15 15 15 16 16 16 16 16 16 15 15 15 15 15 15 15 15 15 15 14 14 15 15 16 16 16 16 16 16 16 16 16 15 14 14 13 13 12 12 12 13 13 13 13
16 17 17 17 16 16 16 16 16 16 16 16 16 15 15 15 15 15 15 16 16 15 15 15 15 15 15 15 14 14 15 15 15 15 15 14 14 14 14 14 14 14 14 15 15 16 16 16 16 15 15 15 14 14 14 14 14 15 15 15 14 14 14 15 15 16 16 16 16 16 15 15 15 14 13 13 12 12 12 12 12 12 12 12 13
16 16 17 16 16 16 16 16 16 16 16 16 16 15 15 15 15 15 15 15 15 15 15 15 15 15 15 15 14 14 15 15 15 15 15 14 14 13 13 14 14 13 13 14 15 16 16 16 15 15 14 14 14 14 14 14 14 14 14 14 13 14 14 14 15 15 15 15 16 15 15 14 14 13 13 13 12 12 12 11 12 12 12 12 12
15 15 16 16 16 16 16 16 16 16 16 16 16 15 15 15 15 15 15 14 14 14 14 15 15 15 15 15 15 15 15 15 15 15 15 15 14 14 13 14 14 14 13 14 15 15 15 15 15 15 14 14 14 14 13 14 13 13 13 13 13 13 13 13 14 14 14 15 15 15 14 14 13 13 13 12 11 11 11 11 11 11 11 11 11
15 15 15 15 15 15 16 16 16 16 16 16 16 15 15 16 16 15 15 14 14 14 14 14 14 14 14 14 14 15 15 14 14 14 14 14 14 14 14 13 14 13 13 13 14 14 14 14 15 14 14 13 13 13 13 13 13 13 13 12 12 12 12 12 13 13 13 13 14 14 13 13 13 12 11 10 10 10 11 11 11 11 10 11 11
15 15 15 15 15 15 15 16 16 16 16 15 15 15 15 15 15 15 15 14 14 14 14 13 13 13 13 13 14 14 14 14 14 14 14 14 14 14 13 13 13 13 13 13 13 13 13 13 14 14 13 13 13 13 13 12 12 12 12 11 11 11 11 11 11 11 11 12 12 12 12 11 11 10 9 9 9 9 10 10 10 10 9 9 9
15 15 14 15 14 14 15 15 15 15 16 15 15 15 15 15 15 15 14 14 14 14 14 13 13 13 13 13 14 14 14 14 14 14 14 13 13 13 13 13 13 13 13 13 13 13 13 13 13 13 12 12 13 13 12 12 11 11 11 11 10 10 10 10 10 10 10 10 11 11 10 9 9 9 8 8 8 8 8 8 8 8 8 8 8
14 14 14 14 14 14 14 14 14 15 15 15 15 15 15 15 14 14 14 14 14 14 14 14 13 13 13 13 13 14 14 14 13 14 13 13 13 13 13 13 14 13 13 12 12 12 12 12 12 12 12 12 13 13 12 12 11 11 11 10 10 9 9 10 10 10 10 10 10 9 9 9 9 8 8 8 8 7 7 7 8 8 8 9 9
14 14 13 13 14 14 14 14 14 14 14 15 15 15 15 14 14 14 14 14 14 14 14 14 13 13 13 13 13 14 14 13 13 13 13 13 14 14 14 14 14 13 13 12 12 12 12 12 12 12 12 12 12 12 12 11 12 11 11 10 10 9 9 10 10 10 10 9 9 9 8 8 8 8 8 7 7 7 6 7 8 9 9 9 10
13 13 12 12 13 13 14 14 14 14 14 15 15 15 14 14 14 14 14 14 13 14 13 13 13 13 13 12 12 12 12 13 13 13 13 14 13 14 14 14 13 13 12 12 12 12 12 12 12 11 11 12 12 11 11 11 12 12 11 11 11 10 9 9 9 9 9 8 8 8 8 8 8 7 7 7 6 6 5 6 7 8 8 9 9
11 11 11 11 12 12 13 13 13 14 14 14 14 14 14 14 14 14 13 13 13 13 13 13 12 12 12 12 12 12 12 12 12 13 13 13 13 14 14 14 13 13 13 12 11 11 11 11 11 11 11 11 11 11 11 11 12 12 11 11 11 10 9 8 8 8 8 8 8 7 7 7 7 6 6 5 5 5 5 5 6 7 7 8 8
10 11 11 11 11 11 12 12 12 13 13 14 14 14 14 14 14 14 14 13 14 13 13 13 12 12 12 12 12 11 12 12 12 12 13 13 13 14 14 14 13 13 13 12 12 11 10 10 10 11 11 11 11 11 11 11 11 11 11 11 11 10 9 8 8 8 8 7 7 7 7 6 6 6 6 5 5 5 4 5 5 6 6 6 7
10 10 10 11 11 11 11 11 11 12 12 13 13 13 14 13 13 13 13 13 13 13 13 13 13 12 12 12 11 11 12 12 12 11 12 13 13 14 14 14 14 13 13 13 12 12 10 10 9 10 10 10 10 10 10 10 10 10 10 10 10 9 8 8 7 7 7 7 7 7 7 7 7 7 7 7 6 6 5 5 5 5 5 5 6
9 9 10 10 10 10 10 10 10 11 11 12 12 13 14 13 13 13 13 13 13 12 12 12 12 11 11 11 11 11 11 12 11 11 11 12 13 13 14 14 13 13 13 13 13 12 10 9 9 9 9 9 9 9 9 9 9 9 9 8 8 8 8 7 7 7 7 8 8 8 8 8 8 8 7 7 7 6 6 5 5 5 5 5 5
8 8 8 9 9 10 10 10 10 10 11 11 12 13 13 13 13 13 13 13 13 12 11 10 10 10 10 10 10 10 10 11 11 11 11 12 12 12 13 13 12 13 13 13 12 11 9 9 9 8 8 8 9 8 8 8 8 8 8 7 7 7 7 7 7 7 8 8 8 8 8 8 8 8 7 7 6 6 5 4 4 4 5 4 4
7 7 7 8 8 9 10 10 10 10 11 11 11 12 13 13 13 13 13 13 13 12 12 11 10 10 9 9 9 10 10 10 11 11 11 12 12 12 12 12 11 12 12 12 11 10 9 8 8 8 8 8 8 8 8 7 7 7 7 6 6 6 7 7 7 7 7 7 7 8 8 7 7 7 6 5 5 4 4 4 4 5 5 4 4
6 6 7 7 8 8 9 9 10 10 10 11 11 12 12 13 13 13 14 14 14 13 13 13 12 11 10 10 10 10 10 10 11 11 11 11 11 11 11 11 10 11 11 11 10 9 9 9 8 7 7 7 7 7 7 6 6 6 6 6 6 6 6 7 7 7 7 7 7 7 7 6 6 5 4 4 4 4 4 5 5 5 4 4 3
5 5 5 6 7 8 8 9 9 10 10 10 11 11 12 12 13 13 14 14 14 15 15 14 14 13 12 11 10 10 9 9 10 11 11 11 11 10 10 10 10 10 10 10 9 9 8 8 7 7 6 6 6 6 5 6 5 5 5 5 6 6 6 6 6 6 6 7 6 6 6 6 5 4 4 4 4 4 4 4 3 3 3 3 3
5 5 5 5 6 7 8 8 9 10 10 10 11 11 12 12 13 13 14 14 14 15 15 15 14 14 13 12 11 10 10 10 10 10 10 10 10 9 9 9 9 9 9 9 8 8 7 7 7 6 6 6 5 5 5 5 5 5 5 5 5 5 5 5 5 5 5 6 6 5 5 5 5 5 5 5 5 4 3 3 2 2 2 2 2
5 5 5 5 5 6 6 7 8 9 9 10 10 11 11 12 12 12 13 13 14 14 14 15 15 14 13 13 12 11 11 11 10 9 9 9 9 8 8 8 8 8 8 7 7 6 6 6 6 5 5 5 5 6 5 5 5 5 5 6 5 5 4 4 4 4 5 5 5 5 4 4 5 5 5 4 4 3 3 2 2 2 2 2 2
4 4 4 4 5 5 5 6 7 8 9 9 10 11 11 11 11 11 11 11 11 12 13 13 13 12 12 12 12 12 12 11 10 10 10 9 9 8 8 8 8 8 7 7 6 6 6 6 6 6 6 6 6 7 6 6 6 5 5 5 5 5 5 5 5 5 5 4 4 4 4 4 4 4 3 3 3 3 2 2 2 2 2 1 1
3 3 4 4 4 4 5 5 6 7 8 9 10 10 10 9 10 10 10 10 10 10 11 10 10 10 9 9 9 10 10 10 9 9 9 9 9 8 8 8 8 8 8 7 7 6 6 6 7 7 7 7 7 7 7 6 6 6 5 4 5 5 5 5 5 5 4 3 3 4 4 4 3 3 2 2 2 2 2 1 1 1 1 1 2
2 3 3 3 4 4 4 4 5 6 7 8 9 10 10 9 8 9 9 9 9 10 9 9 9 9 8 8 9 9 9 9 8 8 8 8 8 8 8 8 8 8 8 7 7 7 7 8 7 7 7 7 7 7 6 6 6 6 5 5 5 5 4 4 4 4 3 3 3 4 4 3 3 2 2 1 1 1 1 1 1 1 1 1 2
2 2 2 3 3 3 3 4 4 5 6 7 8 9 10 9 8 8 9 9 9 9 9 9 9 8 8 8 9 9 8 8 8 7 7 8 8 8 8 8 8 8 7 7 7 8 8 8 8 7 7 7 7 6 6 6 5 5 5 5 5 5 5 4 3 3 3 3 4 3 3 2 2 2 1 1 1 1 1 1 1 1 1 1 1
2 1 2 2 2 2 3 3 4 4 5 6 7 8 9 10 10 8 8 8 9 9 9 9 9 8 8 8 8 8 8 8 8 8 7 7 7 7 7 7 7 7 7 7 8 8 8 8 8 7 7 7 6 6 5 5 5 5 5 5 5 5 5 4 3 3 3 3 3 3 3 2 2 2 1 1 1 1 1 1 1 1 1 1 1
1 1 1 1 1 2 2 2 3 4 5 5 6 7 8 10 10 10 8 7 7 7 8 8 8 7 7 7 8 8 8 8 8 8 7 7 7 7 7 6 6 6 6 7 8 8 8 7 7 7 7 6 6 5 5 5 5 5 5 5 5 5 5 4 4 3 3 3 3 3 3 2 2 1 1 1 1 0 0 0 0 0 1 1 1
1 1 1 1 1 1 1 2 2 3 4 5 6 7 8 9 9 10 10 9 8 8 7 7 6 6 6 6 7 7 7 7 7 7 6 7 7 7 6 5 5 5 6 7 8 8 7 7 7 7 6 5 5 5 5 5 4 5 5 5 5 5 4 4 4 3 3 3 3 3 3 2 1 1 1 1 0 0 0 0 0 0 0 0 0
0 0 1 1 0 0 1 1 1 2 3 4 5 6 7 8 8 9 9 10 10 9 8 6 5 5 5 5 6 6 6 6 7 6 6 6 6 6 5 5 5 6 7 7 7 7 7 7 6 6 6 5 5 5 4 4 4 4 4 4 4 4 4 4 3 3 2 3 3 3 2 2 1 1 1 0 0 0 0 -0 -0 -0 -0 -0 -0
1 1 1 1 1 1 1 1 1 1 2 3 4 5 6 7 8 8 9 9 10 10 9 7 5 4 4 4 5 5 5 5 6 5 5 5 5 6 6 6 6 6 7 7 7 7 6 6 6 5 5 5 5 5 5 4 4 4 4 4 4 4 3 3 2 2 2 3 3 3 2 2 1 1 1 0 0 0 0 -0 -0 -0 -0 -0 -1
2 1 1 1 1 1 1 1 1 1 1 2 3 4 5 7 7 7 8 9 9 9 8 7 6 6 4 3 3 3 3 3 3 3 4 4 5 6 7 7 7 7 7 7 6 6 6 5 5 5 5 5 5 5 4 4 4 4 4 4 4 4 3 3 2 2 2 3 3 3 2 2 1 1 1 0 0 -0 -0 -0 -0 -0 -0 -0 -0
2 1 1 1 1 1 1 1 0 0 1 1 2 3 5 6 7 7 7 8 8 8 8 8 7 6 4 2 1 2 2 1 1 2 3 4 5 6 7 7 7 7 6 6 6 5 5 5 5 5 5 5 5 5 4 4 4 4 3 4 4 4 3 3 3 3 3 3 3 3 2 2 1 1 1 0 -0 -0 -0 -1 -1 -1 -1 -0 -0
2 1 1 1 1 1 0 0 0 0 1 1 2 3 4 5 6 6 7 7 8 7 8 8 7 4 3 2 2 1 2 2 1 2 3 4 5 6 6 6 6 6 6 5 5 5 5 4 4 4 5 5 5 4 4 4 4 4 4 4 4 4 3 3 3 3 2 2 2 2 1 1 1 1 0 -0 -1 -1 -1 -1 -1 -0 -0 -0 -1
1 1 1 1 1 0 0 0 0 0 0 1 2 4 4 5 6 6 6 7 7 7 7 7 6 3 2 3 3 2 2 2 2 2 3 4 5 6 6 5 5 5 5 5 5 4 4 4 4 4 4 4 4 4 3 3 3 4 4 3 3 3 3 3 3 2 2 2 2 2 1 1 0 -0 -0 -1 -1 -1 -1 -1 -0 -0 -0 -0 -0
1 1 1 1 1 0 0 -0 -0 -0 0 1 2 4 4 5 5 6 6 6 7 7 7 6 4 3 2 3 3 2 2 2 2 3 4 4 5 5 5 5 5 4 4 4 4 4 4 4 3 4 4 3 3 3 3 3 3 3 3 3 3 2 2 3 2 2 1 1 2 1 0 -0 -0 -1 -1 -1 -1 -1 -0 -0 -0 -0 -0 0 0
1 1 1 1 1 0 0 0 -0 -0 0 1 2 3 4 4 5 6 6 6 6 6 6 4 3 2 1 1 2 2 2 2 3 3 4 4 4 4 4 4 4 4 4 4 4 4 3 3 4 4 3 2 2 3 3 3 3 3 2 2 2 2 2 2 1 1 1 1 0 -0 -1 -1 -1 -1 -0 -0 -0 -0 -0 -0 -0 -0 -0 -0 0
1 1 1 1 1 1 0 0 0 0 0 0 1 2 3 4 5 5 6 6 5 5 4 3 2 1 1 1 2 2 2 3 3 4 4 4 4 4 4 4 3 3 3 3 3 3 3 3 3 3 2 2 1 2 2 2 2 2 1 1 1 1 1 1 0 0 0 0 -0 -1 -1 -0 -0 -0 -0 -0 -0 -0 -0 -0 -0 -0 -0 -0 -0
1 1 1 1 1 1 1 0 0 0 0 1 2 2 3 4 5 5 5 5 5 4 3 2 1 1 0 1 1 2 3 3 3 3 3 3 4 4 4 3 2 2 2 2 2 3 3 3 3 2 2 2 1 1 1 1 1 1 1 1 1 0 0 0 0 0 0 1 -0 -1 -1 -0 -0 -0 -0 -0 -0 0 0 0 0 -0 -0 -0 -0
1 1 1 1 0 0 1 1 1 1 2 2 3 3 4 4 5 5 5 5 5 4 3 2 1 1 0 1 1 2 3 3 3 3 2 2 3 3 2 2 2 2 2 1 1 2 3 3 2 2 2 1 1 1 1 1 1 1 1 1 1 0 0 0 0 0 0 1 -0 -1 -2 -1 -1 -1 -1 -0 -0 0 0 0 0 -0 -0 -0 -1
1 1 1 1 0 0 1 1 2 2 3 3 3 4 4 5 5 5 4 4 4 4 3 2 1 1 0 1 1 2 2 2 2 2 2 2 1 1 1 1 1 1 1 1 1 1 2 1 1 0 0 0 0 0 1 0 0 1 0 -0 0 0 0 -0 0 0 0 0 -0 -1 -1 -2 -2 -1 -0 -0 0 0 0 0 0 -0 -0 -1 -1
2 1 0 -0 0 0 1 1 2 3 3 3 4 4 4 4 4 4 4 3 3 3 3 2 1 0 0 1 1 2 2 2 2 2 1 1 1 1 0 1 1 1 1 1 1 1 0 -0 -1 -1 -1 -0 0 0 0 0 1 1 0 -0 0 0 0 0 0 0 0 0 0 -0 -1 -2 -2 -1 0 0 0 1 0 0 0 -0 -0 -0 -0
3 2 1 -0 -0 -0 0 1 2 3 4 4 3 2 2 1 2 2 2 2 3 3 2 2 1 0 0 1 1 1 2 2 1 1 1 0 0 0 0 0 1 1 1 0 -0 -1 -1 -1 -1 -1 -1 -0 -0 0 0 1 1 1 1 1 1 1 0 0 0 0 0 0 0 -0 -1 -1 -1 -1 0 1 1 1 1 0 -0 -0 -1 -0 -0
3 2 1 0 -0 -1 -0 0 1 2 2 3 2 2 1 1 0 0 0 1 1 1 1 0 0 0 0 1 1 1 1 1 0 0 0 0 0 0 -0 -0 -0 0 -0 -1 -1 -2 -2 -2 -1 -1 -1 -0 -0 -0 0 0 1 1 1 1 1 1 1 0 0 0 0 0 0 0 -0 -1 -1 -0 0 1 1 1 1 0 -0 -0 -0 0 0
3 2 2 1 -0 -1 -1 -1 -1 -0 -0 0 1 1 1 0 0 -0 -1 -1 -1 -1 -1 -1 -0 -0 -0 -0 0 0 -0 -0 -0 0 0 0 0 -0 -1 -1 -2 -2 -2 -2 -2 -2 -2 -2 -2 -3 -2 -1 -0 0 0 0 1 1 1 1 1 1 1 0 0 0 0 0 0 0 -0 -1 -1 -0 0 1 1 1 0 0 0 0 0 1 1
Height
811 812 813 815 816 817 819 821 823 824 824 824 825 826 826 827 829 832 834 836 837 838 839 839 841 842 843 844 845 846 847 847 848 849 849 850 851 852 852 853 853 853 854 854 855 855 856 856 856 857 857 857 857 857 857 858 858 858 859 859 859 859 859 859 860 863 865 866 866 866 866 866 866 865 865 865 864 864 863 863 861 861 860 859 857
810 811 813 814 815 816 818 820 822 823 824 824 825 826 826 827 830 832 834 836 837 838 839 840 841 842 843 844 846 847 848 848 849 850 850 851 852 852 853 853 853 854 854 855 855 856 856 857 857 857 857 858 858 858 858 858 858 858 859 859 860 860 860 860 860 862 864 865 866 866 866 865 865 865 865 865 864 864 863 862 862 861 860 859 857
810 811 812 814 815 816 818 820 822 823 824 825 826 827 827 828 830 831 833 835 836 837 839 840 841 842 843 845 846 847 848 849 849 850 851 852 852 853 853 853 854 854 854 855 855 856 857 857 857 858 858 858 858 858 858 859 858 858 860 860 860 861 861 861 860 861 863 864 865 865 865 865 865 865 865 864 864 863 863 862 861 860 859 858 857
809 810 812 813 815 816 818 820 821 822 824 825 826 827 828 829 829 831 832 834 835 836 838 839 840 841 843 844 846 847 848 849 849 850 851 852 852 853 853 853 854 854 854 855 855 856 856 857 857 858 858 858 859 859 859 859 859 859 860 861 861 861 862 861 861 861 862 863 863 863 864 864 864 864 864 863 862 862 862 861 860 860 859 858 857
808 809 811 813 814 815 817 819 820 822 823 824 825 827 828 828 829 831 832 833 834 836 837 838 839 841 842 844 845 846 847 848 849 850 851 851 852 852 853 853 853 854 854 854 855 855 856 856 857 857 858 858 858 859 859 859 859 859 860 860 860 861 862 862 862 861 861 862 863 863 863 863 863 863 863 862 861 861 860 860 859 859 858 857 856
809 810 811 813 814 815 816 818 820 821 823 823 824 825 827 828 829 830 831 832 833 834 836 837 838 839 841 842 844 845 846 847 848 849 850 850 851 851 852 852 852 853 853 854 854 855 855 855 856 856 857 857 857 858 858 859 859 860 860 860 860 861 862 862 861 861 861 861 862 862 862 862 862 862 862 861 861 860 859 859 858 857 856 855 854
810 811 812 813 814 815 816 817 819 821 822 823 824 824 826 827 828 829 830 831 832 833 834 836 837 838 839 841 842 843 844 846 847 848 848 849 850 850 850 851 851 852 852 852 853 853 854 854 854 855 855 856 856 857 857 858 859 859 860 860 860 861 861 861 861 861 861 861 861 861 861 861 861 861 860 860 860 859 859 858 857 856 856 855 853
810 811 812 813 814 814 816 817 818 820 821 822 823 824 825 826 827 828 829 830 831 832 833 834 835 836 837 838 840 841 842 844 845 846 846 847 848 848 848 849 850 850 851 851 851 851 852 852 852 853 853 854 855 855 856 857 857 858 859 859 860 860 861 861 860 860 860 859 859 859 860 860 860 860 860 859 859 858 859 859 857 856 855 854 852
811 811 812 813 813 814 815 816 817 819 820 821 822 823 824 825 826 827 827 828 830 831 832 833 833 835 836 836 837 838 840 841 842 843 844 845 845 846 846 847 848 849 849 849 850 850 850 850 850 851 852 852 853 853 854 855 856 856 857 857 859 859 860 860 859 858 858 858 857 857 858 857 857 859 860 859 859 859 858 858 857 855 854 852 851
812 812 812 813 814 814 815 815 816 818 818 820 821 822 823 823 824 825 826 826 827 828 830 831 832 833 834 835 835 835 836 837 838 840 841 842 844 845 846 846 847 848 848 848 849 848 848 848 848 849 849 849 850 851 852 853 854 854 856 856 857 858 858 858 858 857 857 856 856 856 857 857 857 859 859 859 859 859 858 857 856 854 853 851 849
813 813 813 813 814 814 815 815 815 816 817 818 819 820 821 821 822 823 823 824 825 826 827 828 829 830 831 832 833 833 834 834 835 837 838 841 843 844 845 846 846 847 848 848 848 847 846 847 847 847 847 847 848 848 849 850 851 852 854 855 855 856 857 857 857 856 856 856 856 856 858 858 858 859 859 858 858 858 857 856 855 854 853 851 849
815 815 814 815 815 814 815 815 815 815 816 816 817 818 818 819 819 820 821 821 823 824 826 827 827 828 829 830 831 831 832 833 834 835 836 838 840 842 844 844 845 846 846 847 847 846 846 846 846 846 846 846 846 846 847 848 848 849 851 852 853 854 855 855 855 855 856 856 856 856 857 857 857 858 858 858 858 857 856 856 854 853 853 851 849
816 816 816 815 815 814 814 814 815 815 815 815 816 816 816 816 817 817 818 818 819 821 823 824 825 826 827 828 828 829 829 830 831 833 834 835 837 839 841 843 844 845 845 845 845 845 845 845 845 846 845 845 845 846 846 846 846 847 848 849 850 851 853 854 854 855 855 855 856 856 856 857 857 857 857 857 857 857 856 854 854 853 852 850 848
816 816 816 816 815 815 814 814 814 814 814 814 815 815 815 815 815 815 816 816 816 817 819 821 822 822 823 825 825 826 826 826 827 829 831 833 836 838 839 841 842 843 843 844 844 843 844 844 845 845 845 844 844 844 845 845 845 845 846 847 849 851 852 853 853 854 855 855 856 856 856 857 857 856 856 856 857 856 855 854 853 852 851 849 847
816 816 816 815 814 814 814 814 814 813 813 813 813 813 814 813 813 814 814 814 814 815 816 817 818 819 820 821 821 822 822 823 824 826 828 832 834 836 838 839 840 841 842 842 842 842 843 843 843 844 843 843 843 843 844 845 844 845 846 847 849 850 850 851 852 853 854 854 855 856 855 855 856 856 855 855 855 855 854 853 852 851 849 847 844
817 816 815 815 814 814 814 814 813 813 812 812 811 812 812 812 812 812 813 813 813 813 813 814 815 815 817 817 817 818 819 820 823 825 827 830 833 834 836 838 839 840 841 841 841 842 842 842 843 843 842 842 842 842 843 844 845 845 846 848 849 849 849 850 851 852 853 853 854 854 854 854 854 854 854 854 854 854 853 852 850 849 846 844 841
817 816 816 815 815 815 814 813 813 812 811 811 810 810 810 810 810 811 811 811 811 811 811 811 811 812 813 813 815 816 817 819 822 825 827 829 831 833 835 836 837 839 839 840 841 841 841 841 842 842 842 842 842 842 842 843 845 846 847 848 849 849 849 850 851 851 852 852 852 852 852 852 852 852 852 852 851 851 851 850 848 847 845 842 839
818 817 816 816 816 815 815 814 813 811 811 810 809 809 808 808 809 809 809 810 810 810 810 809 809 809 810 811 813 816 818 820 822 825 827 828 830 831 832 834 836 837 838 839 840 840 840 840 841 842 842 842 842 842 842 844 845 846 847 848 849 849 850 850 850 851 851 851 851 850 850 850 850 850 850 850 849 849 849 848 847 845 843 841 838
818 817 817 816 816 816 815 814 813 811 810 809 808 807 807 807 807 807 808 808 808 808 809 809 808 808 809 810 812 815 817 819 823 825 826 827 829 830 831 832 834 836 837 838 839 839 839 840 840 841 841 841 842 842 842 844 845 846 847 847 848 849 849 850 850 851 851 850 850 849 849 848 848 848 847 847 847 847 846 846 845 844 842 839 837
819 818 817 816 815 815 815 814 813 812 810 809 807 807 806 805 805 805 805 806 806 806 806 807 807 807 807 809 812 813 813 815 820 824 825 827 828 828 829 831 832 834 835 836 837 838 839 839 840 840 841 841 842 842 842 843 845 846 847 847 847 848 849 850 850 850 850 850 850 849 848 848 847 847 846 845 844 844 844 843 843 842 841 838 837
818 817 816 815 815 814 814 813 812 811 810 809 807 806 805 804 803 803 803 803 803 803 803 805 806 807 807 808 811 812 811 811 815 820 823 825 826 827 828 829 831 832 833 834 836 837 838 839 839 840 841 841 841 842 842 843 844 845 846 846 847 848 849 849 849 849 849 849 848 848 847 846 846 845 845 844 844 843 842 842 841 841 840 838 836
818 817 816 815 814 813 813 812 811 810 809 808 807 805 804 803 802 802 802 801 801 801 801 803 805 805 806 808 810 811 812 811 813 817 821 822 823 825 826 827 829 830 831 833 834 836 838 838 839 839 840 840 841 841 842 843 844 844 845 846 847 847 848 849 849 848 848 848 847 846 846 845 844 844 843 843 842 841 841 840 839 839 838 837 835
817 816 815 814 813 812 811 810 810 809 808 807 806 805 803 802 801 800 800 800 800 800 800 801 804 804 804 805 809 812 814 813 813 817 819 820 822 823 824 826 828 829 830 831 833 835 836 837 838 839 839 840 840 841 842 842 843 844 845 846 846 846 847 848 848 848 847 847 846 845 844 843 843 842 842 841 841 840 839 838 837 836 835 834 832
816 815 814 812 811 810 809 809 808 807 806 806 805 804 803 802 800 799 799 798 799 801 801 801 803 804 803 804 808 812 815 816 815 816 817 819 820 822 823 825 826 828 829 830 832 834 835 835 837 838 839 839 840 841 842 843 843 844 844 845 845 846 847 847 847 847 846 845 845 844 843 842 842 841 841 840 839 838 837 836 834 834 832 831 829
815 813 812 810 809 808 807 806 805 805 804 804 803 802 801 800 799 798 797 797 797 798 799 799 799 800 801 803 807 811 815 817 816 816 817 818 819 821 822 824 825 826 827 829 830 832 833 834 836 838 838 839 840 841 842 843 843 843 844 844 845 846 846 846 846 846 845 844 843 843 842 841 841 840 840 839 838 836 835 833 832 831 830 828 827
813 812 810 809 807 806 805 803 802 802 801 801 800 800 799 798 797 796 795 794 794 794 794 795 796 798 799 801 805 809 812 814 814 814 815 817 818 820 822 823 824 825 826 827 829 831 833 834 836 837 838 839 841 842 842 842 843 843 844 844 845 845 846 846 846 845 844 843 843 842 841 840 840 839 838 837 836 835 833 832 831 829 828 826 825
811 810 809 807 806 804 802 801 800 798 798 797 797 796 796 795 795 794 792 792 792 791 791 792 793 796 798 800 803 807 809 810 811 812 813 815 816 819 820 822 823 824 825 827 829 830 832 834 836 837 838 839 841 842 842 843 843 844 844 844 845 845 845 845 845 845 844 843 842 841 840 840 838 837 836 836 835 833 832 831 830 828 827 825 823
810 808 807 806 804 803 801 799 797 796 795 794 793 792 792 792 792 792 791 791 790 790 790 790 791 793 795 797 800 803 805 806 807 809 811 812 815 817 819 820 822 823 825 827 828 830 832 834 836 838 839 840 841 842 842 843 844 844 844 844 844 844 844 844 844 844 843 842 841 840 839 838 837 836 835 834 833 832 831 829 828 827 825 824 822
807 806 805 804 802 801 799 797 795 793 791 790 789 788 788 788 789 789 790 790 789 790 790 790 791 792 793 795 797 800 802 804 805 806 807 809 812 814 816 819 820 821 823 825 827 830 833 835 837 838 839 840 841 841 842 843 843 844 844 844 844 844 844 844 843 843 842 842 841 840 839 838 837 835 834 833 832 830 829 828 826 825 823 822 820
804 803 802 801 799 799 797 795 793 791 789 787 786 784 784 784 785 786 786 787 788 789 790 790 791 792 792 794 796 798 800 802 804 805 807 809 811 813 815 817 817 818 821 825 827 830 832 834 836 836 837 839 839 840 841 842 842 843 843 844 844 844 844 844 843 842 842 841 840 839 838 837 836 834 833 832 831 829 828 827 825 823 822 820 819
801 800 799 797 796 796 795 793 791 789 786 784 783 781 780 780 781 782 783 783 785 787 788 790 791 792 793 794 795 797 800 802 805 807 808 809 811 813 814 815 815 817 821 825 827 830 831 832 834 835 836 837 838 839 841 841 842 843 843 843 843 843 843 843 842 842 841 840 839 838 837 836 835 834 832 831 830 828 827 825 824 822 821 819 817
798 796 795 794 793 792 791 790 789 787 785 783 781 779 777 777 777 779 779 780 781 783 785 787 788 790 793 795 796 797 801 803 805 807 809 811 812 813 813 814 814 817 821 824 827 828 829 831 832 834 835 837 838 839 840 841 841 842 842 842 842 842 842 842 841 841 840 839 838 837 836 835 834 833 831 830 828 827 825 824 822 821 819 818 816
795 793 792 791 790 789 788 787 786 784 783 781 779 777 775 773 773 775 776 778 779 780 781 783 785 787 790 793 795 797 800 803 804 806 809 811 813 814 813 813 814 818 822 824 825 827 828 830 832 833 835 836 838 839 840 840 841 841 842 842 842 842 842 841 840 840 839 838 837 836 835 834 833 831 830 828 827 825 824 822 821 820 818 816 815
792 790 788 787 787 786 785 784 783 782 780 779 777 775 773 771 771 772 773 775 776 777 779 780 782 784 786 789 792 796 798 800 803 805 807 810 812 813 813 814 816 820 822 823 824 826 828 830 831 833 835 836 838 838 839 839 840 841 841 841 841 841 840 840 839 839 838 837 836 835 833 833 831 830 829 827 826 824 823 821 820 818 817 815 814
788 786 784 783 783 782 782 781 780 779 778 776 774 773 771 770 770 770 770 772 773 775 776 777 779 782 784 786 789 792 795 798 801 804 806 808 809 811 812 815 818 820 822 823 824 825 827 829 831 833 835 836 837 837 838 839 840 840 840 840 840 840 839 839 838 838 837 836 835 834 833 832 830 829 828 826 825 823 822 820 819 817 816 814 813
784 781 779 778 778 778 778 778 778 777 776 775 774 772 770 769 769 769 769 770 771 772 774 776 778 779 782 784 787 789 793 796 799 802 805 806 807 809 811 814 817 819 820 822 823 824 826 828 831 832 834 835 836 837 837 838 839 839 839 839 839 839 839 838 838 837 837 835 834 833 832 831 829 828 827 825 824 822 820 819 817 816 814 813 811
779 777 776 775 774 774 774 774 774 775 775 774 774 772 769 768 768 769 769 769 769 771 773 775 777 779 781 783 785 788 791 794 797 801 804 807 808 810 812 813 815 817 819 821 822 824 826 829 831 832 833 834 835 836 837 837 838 838 838 838 838 838 838 838 837 836 835 834 832 831 831 830 828 827 826 824 822 821 819 818 816 814 813 812 810
776 774 773 771 771 771 771 771 772 772 773 773 773 771 769 767 768 768 769 768 769 771 773 774 776 779 780 782 785 787 789 793 797 801 804 808 810 811 812 813 814 816 819 820 822 825 827 828 830 831 832 833 834 835 836 837 837 837 837 837 837 837 837 836 835 835 834 833 832 831 830 829 828 826 825 823 821 820 818 816 815 813 811 810 808
774 772 770 768 767 767 768 769 770 771 771 771 771 770 769 767 767 768 768 769 770 772 773 774 776 778 780 782 784 786 788 792 796 799 802 806 810 811 811 812 814 816 818 821 823 825 827 828 830 831 831 832 833 835 836 836 836 836 837 836 836 836 836 835 835 834 833 833 832 830 830 829 827 825 824 822 821 819 817 815 814 812 810 808 806
772 770 767 764 763 763 765 767 769 769 770 770 769 769 768 767 767 768 768 769 770 771 772 774 776 778 780 781 783 785 788 791 796 800 802 805 809 810 810 812 814 816 819 821 823 825 827 828 829 830 831 832 833 835 835 836 836 835 836 836 836 836 835 835 835 834 833 833 832 831 829 828 826 825 823 821 820 818 816 814 812 810 808 806 804
772 769 766 764 762 762 764 766 767 768 769 769 768 767 767 767 767 768 769 769 770 771 773 774 776 778 780 781 783 786 788 791 796 802 805 806 808 809 810 812 814 816 819 821 823 825 826 828 829 830 831 832 834 834 835 835 835 835 835 835 835 835 835 835 834 834 833 832 831 830 829 828 826 824 822 821 819 817 815 813 811 809 807 805 803
772 770 767 765 764 764 765 766 767 767 768 768 767 767 766 767 767 768 769 770 770 771 773 775 777 779 781 783 786 790 793 795 799 803 806 807 808 809 811 813 815 817 820 822 823 825 826 828 829 830 831 832 833 834 834 834 834 834 835 835 835 835 835 834 834 833 833 832 831 829 828 827 825 823 822 820 818 816 814 812 810 808 806 803 801
773 771 769 767 766 766 766 766 767 767 768 768 768 767 767 767 767 768 769 771 772 772 774 776 778 780 783 787 790 793 796 799 802 804 806 807 808 810 812 814 816 818 820 822 823 825 826 828 829 831 832 833 833 833 834 834 834 834 835 835 835 835 834 834 834 833 832 831 830 828 827 826 824 823 821 819 817 815 813 811 809 807 805 802 800
774 772 770 769 768 767 767 767 767 767 768 768 768 768 768 768 768 769 770 771 773 774 775 777 779 781 785 789 792 795 797 800 803 805 806 807 809 811 814 816 817 819 821 822 824 825 827 828 830 831 832 833 833 833 833 834 834 835 835 835 835 835 834 833 833 832 831 830 828 827 827 825 823 822 820 818 816 814 812 810 808 806 804 801 799
776 774 772 771 770 769 769 769 768 768 769 769 769 769 769 768 768 769 771 772 773 775 776 778 781 783 786 789 793 796 798 800 803 805 807 808 810 813 815 817 818 820 821 822 824 826 828 829 830 832 832 833 833 833 834 834 834 834 834 834 834 834 833 832 831 830 829 828 827 827 826 824 822 821 819 817 815 813 811 809 807 805 803 800 798
777 776 774 773 772 771 771 770 770 770 770 769 769 769 769 769 769 770 772 773 775 776 778 780 782 785 788 791 794 797 799 800 803 805 807 809 812 814 816 817 819 820 822 823 825 827 828 830 831 832 832 832 833 833 833 834 834 834 834 833 833 833 832 831 830 829 828 827 826 825 824 823 822 820 818 817 815 812 810 808 806 804 802 800 797
779 777 776 775 774 774 773 773 772 771 771 770 770 770 769 770 771 772 774 776 777 778 780 782 784 787 790 793 796 799 800 801 803 806 808 810 813 814 816 818 820 821 823 824 826 828 829 830 831 831 832 832 832 833 833 834 834 834 833 833 832 832 831 830 829 828 827 826 825 824 823 822 821 819 818 816 814 812 810 807 805 803 801 799 797
781 780 778 777 777 776 776 775 774 773 773 772 772 772 773 773 774 775 776 778 779 780 783 785 787 789 791 794 797 801 802 803 805 807 809 811 813 815 817 819 821 823 825 826 827 829 830 830 830 831 831 831 832 833 833 833 833 833 833 833 832 831 830 829 828 827 826 826 825 824 822 821 820 819 817 815 813 811 809 807 804 802 800 799 797
784 783 781 780 780 779 779 778 777 776 775 775 776 776 777 778 778 779 780 781 782 783 785 787 790 792 794 796 799 802 804 805 807 809 811 814 816 818 820 821 823 824 826 827 828 829 829 829 829 830 830 831 832 832 833 833 833 832 832 832 831 830 830 828 827 827 826 825 824 823 822 821 820 819 817 815 813 811 809 806 804 802 800 798 796
787 786 785 784 783 782 782 781 781 780 779 779 779 780 781 781 782 783 784 784 786 787 789 790 792 794 797 799 802 804 806 808 809 812 814 816 818 820 821 823 824 825 826 827 828 828 829 829 829 829 830 831 832 832 832 832 832 832 831 831 830 830 829 828 827 826 825 824 824 823 821 820 820 818 816 814 812 810 808 806 804 802 800 798 796
789 789 788 787 786 786 785 784 784 784 784 784 784 784 784 785 785 786 787 788 789 791 792 794 796 797 800 803 806 808 809 811 813 815 817 819 820 821 823 824 824 825 826 827 827 828 829 829 830 830 830 831 831 832 832 832 831 831 831 830 829 829 828 827 826 826 825 824 823 822 821 820 819 818 816 814 812 810 808 806 804 802 800 797 796
Wind_Speed
15 15 15 15 16 20 21 19 16 14 13 13 12 10 10 10 10 9 8 7 7 8 8 8 9 9 9 9 9 9 8 8 8 8 8 8 7 7 7 6 7 7 6 6 6 6 5 5 5 5 4 4 5 5 5 5 5 5 5 5 5 4 3 5 7 7 5 3 3 3 3 2 2 3 3 2 1 2 2 2 2 2 1 3 6
15 14 14 14 16 20 21 18 15 14 14 12 10 9 9 9 9 9 9 7 7 7 8 9 9 9 9 9 9 9 8 8 7 7 7 7 7 6 6 6 6 6 6 6 5 5 4 4 5 4 3 3 3 3 4 4 4 5 4 4 4 4 3 4 5 6 6 5 5 4 3 2 2 3 2 2 1 0 1 2 2 2 3 2 3
14 13 13 14 16 18 18 16 15 14 13 11 8 7 8 8 8 9 9 8 8 7 8 9 9 9 8 8 8 8 8 8 7 7 7 7 6 5 5 5 5 5 5 5 5 5 4 4 4 3 3 3 2 2 3 3 3 3 3 3 4 3 2 2 3 4 6 6 6 5 4 3 2 2 2 2 0 1 1 1 2 2 4 3 3
11 11 12 13 15 16 16 16 15 14 13 12 9 7 8 8 7 7 8 9 9 9 9 9 10 10 9 9 8 8 8 8 7 6 6 5 5 5 4 4 4 4 4 4 4 5 4 4 4 4 3 3 3 2 3 3 2 3 3 3 4 4 3 2 1 3 5 5 4 4 4 3 3 2 1 2 2 1 1 2 2 2 4 5 4
8 9 10 11 13 14 14 14 15 14 13 12 10 8 7 7 6 6 7 8 9 10 10 10 11 11 10 10 9 9 8 8 7 7 6 5 5 4 4 4 4 4 4 4 4 4 5 5 5 5 5 4 4 3 3 4 3 3 3 3 4 4 3 2 1 2 3 4 4 3 3 3 3 1 1 2 2 2 2 3 4 4 4 6 6
7 8 8 9 11 12 13 13 14 14 13 12 11 8 7 7 7 7 8 8 8 10 10 11 11 11 11 11 10 10 9 8 8 7 6 5 4 4 3 3 4 4 5 5 6 6 6 6 6 6 7 6 6 5 5 5 4 4 4 4 3 4 4 3 3 3 3 3 4 4 3 3 2 2 1 2 3 3 4 5 5 5 5 7 7
6 7 7 8 9 11 12 13 13 12 12 12 11 9 8 9 10 9 9 8 9 10 11 12 12 12 12 12 12 11 11 10 9 7 6 5 4 2 1 2 3 4 5 6 6 7 8 8 9 9 9 8 8 7 7 7 6 6 6 5 4 4 5 5 4 4 3 3 4 3 3 3 2 2 1 1 3 3 4 8 8 7 7 9 9
5 5 5 6 7 9 10 12 13 13 12 12 11 10 9 9 10 10 10 9 9 10 12 13 13 13 14 14 14 14 12 11 9 8 5 4 3 3 2 2 3 4 6 7 8 8 9 9 10 10 10 10 10 10 9 9 8 8 8 8 6 6 6 6 6 7 6 6 6 5 5 4 3 3 3 2 3 4 5 8 10 10 10 11 11
4 4 4 5 6 7 8 9 11 12 13 12 11 10 10 10 10 10 11 10 10 10 11 13 14 14 15 15 16 17 16 13 12 10 7 4 2 3 4 4 5 6 7 8 8 9 9 10 11 11 11 12 12 12 12 12 12 10 9 9 9 8 8 8 8 8 9 9 8 7 7 8 6 5 5 4 4 6 6 7 10 11 12 12 12
3 3 3 3 4 5 7 8 9 11 12 12 11 10 11 12 11 11 12 12 11 11 12 14 15 16 16 15 17 19 20 18 17 15 12 6 2 3 5 5 6 7 8 10 10 9 9 9 9 11 13 14 13 13 14 15 16 14 12 10 9 9 9 9 9 9 8 9 10 8 8 9 7 5 6 5 4 6 7 9 11 12 13 13 13
4 3 2 1 2 3 5 7 8 9 10 11 11 11 12 13 13 13 13 13 13 14 15 16 17 17 17 17 17 19 20 19 19 21 19 14 9 9 8 6 7 8 8 10 11 9 8 8 7 9 12 12 11 12 13 13 15 16 16 14 12 11 11 10 9 9 8 9 9 8 7 7 5 5 6 5 5 7 8 9 11 12 12 13 14
6 4 3 1 1 2 4 5 7 8 8 9 10 11 13 14 14 13 14 15 16 15 16 18 18 18 18 17 19 20 20 20 21 22 22 21 21 17 11 7 8 9 9 9 10 9 8 8 7 7 8 8 8 9 11 11 11 13 16 18 18 16 14 12 9 7 6 7 8 8 7 6 6 6 5 5 7 9 10 10 11 11 12 14 15
8 7 5 3 1 2 3 4 6 7 7 8 9 11 13 14 15 15 15 16 18 18 19 20 20 19 18 18 19 20 22 24 24 23 23 24 24 19 11 8 9 9 8 8 7 6 5 5 4 4 5 6 6 5 5 8 9 11 14 18 20 19 17 16 13 9 6 6 7 7 6 5 6 5 4 5 8 10 11 12 12 12 14 15 16
8 8 7 7 5 3 3 4 6 7 7 8 9 11 13 14 15 15 14 15 17 19 20 21 21 19 19 19 19 18 19 21 22 22 25 25 22 17 12 10 9 8 8 7 5 4 3 2 2 1 0 1 2 2 3 4 6 8 10 14 15 15 14 13 11 9 7 5 5 6 3 3 5 3 4 7 8 9 11 12 13 14 16 18 19
8 8 8 9 8 7 5 3 5 6 7 8 10 11 12 14 15 14 14 15 16 17 19 21 20 20 20 20 19 18 18 20 20 21 23 23 20 16 12 11 9 7 7 6 4 3 2 2 2 2 1 1 2 3 3 3 3 4 7 9 9 10 11 11 9 8 5 4 3 3 2 4 4 4 5 6 6 7 10 12 14 15 17 18 18
9 9 9 10 10 9 8 6 5 6 7 9 10 11 12 14 14 13 13 14 15 16 18 19 20 21 20 19 19 18 17 20 22 23 23 22 19 16 13 11 10 8 7 6 5 4 4 3 3 3 2 1 0 1 4 5 5 6 9 9 8 9 11 11 10 9 8 7 6 6 6 8 8 9 9 9 9 9 10 12 14 15 15 16 16
10 10 10 11 11 10 9 8 7 6 7 9 10 12 13 13 13 13 13 14 15 16 17 17 18 19 18 17 17 16 16 20 22 23 24 23 20 17 14 13 11 10 9 7 6 6 6 6 5 4 3 3 3 5 7 8 7 7 9 8 7 7 7 9 8 8 9 8 8 9 9 10 11 12 13 13 14 12 11 12 14 14 14 16 16
12 12 11 12 12 11 10 10 9 8 7 8 9 11 13 13 13 13 14 15 16 16 16 17 18 18 17 16 15 14 15 18 22 24 25 25 22 17 14 13 11 10 10 8 7 7 8 7 7 5 5 5 5 6 8 8 6 6 7 7 6 5 5 6 6 7 7 7 8 9 10 11 13 14 14 15 16 14 12 13 13 14 15 15 16
13 13 13 13 12 12 11 11 11 10 9 9 9 10 11 13 14 14 14 15 16 17 16 17 18 20 20 17 15 16 16 20 24 26 26 26 22 16 14 13 12 11 10 9 8 8 8 7 7 6 5 5 5 4 5 6 4 4 4 5 5 5 4 4 3 3 4 5 6 8 9 11 13 13 13 15 17 15 13 13 13 13 15 16 16
14 14 14 14 13 13 12 12 12 12 12 11 10 9 9 11 13 15 16 16 16 16 16 17 17 20 22 21 20 20 21 24 27 27 26 26 22 16 13 13 13 11 11 10 10 9 9 8 7 7 6 6 5 4 4 5 5 3 2 3 4 4 4 4 4 4 4 4 6 7 8 9 10 10 11 13 14 13 11 12 12 13 14 16 16
13 14 15 15 15 14 13 13 13 13 13 12 12 11 9 8 9 12 14 16 16 15 15 15 15 16 18 20 21 22 24 27 30 29 27 26 22 17 13 12 12 12 11 11 11 10 10 9 9 9 7 6 6 5 4 5 5 4 3 3 4 4 2 2 4 5 5 6 7 8 9 9 10 10 10 10 11 11 11 12 12 13 15 16 17
13 14 15 15 15 15 15 14 14 13 13 12 12 12 10 9 8 9 11 14 15 14 13 12 11 9 9 12 15 19 24 28 31 30 27 26 24 19 14 13 13 12 11 11 11 10 11 11 10 10 8 6 6 5 4 5 4 3 3 2 3 3 2 2 3 5 6 7 8 9 9 10 10 10 10 10 11 10 11 11 12 14 17 18 19
14 14 14 15 16 16 16 15 14 14 13 13 13 13 12 10 9 8 10 11 13 13 13 13 11 9 11 10 10 13 19 26 30 30 27 25 23 20 16 15 15 12 10 11 11 10 11 12 11 10 8 6 5 4 3 3 2 1 1 1 2 3 2 2 4 5 6 8 9 9 10 10 10 10 10 10 10 11 11 12 13 15 18 19 19
14 15 15 16 17 17 17 16 15 15 14 14 14 14 13 12 10 10 10 11 12 13 15 16 14 13 15 15 13 14 17 23 29 29 26 24 23 21 17 16 15 12 9 10 11 11 11 12 11 9 7 5 4 3 1 1 0 0 1 2 4 3 2 3 5 6 7 8 8 9 9 9 9 10 10 10 11 12 13 14 15 17 18 19 19
15 15 16 17 17 17 18 18 17 17 16 15 14 14 14 13 12 12 12 12 14 15 16 16 16 16 18 20 21 22 22 24 28 27 24 23 22 20 18 17 17 14 12 12 12 12 11 11 10 8 6 4 2 2 1 1 1 1 2 3 4 2 2 4 5 6 7 8 8 8 9 9 9 9 10 12 14 15 15 16 17 17 17 18 18
15 16 16 17 18 18 19 19 19 18 18 17 16 16 15 15 14 14 14 14 15 17 16 16 16 17 19 22 25 26 23 23 27 27 24 23 21 19 19 19 18 16 14 14 14 13 11 11 10 8 6 5 5 4 2 1 2 3 4 4 2 1 3 4 5 6 7 7 8 8 9 9 9 10 11 14 16 16 16 16 17 16 16 16 17
18 17 17 17 18 18 19 19 19 19 19 18 17 17 17 16 16 15 14 14 16 17 17 16 17 19 19 20 22 22 19 19 23 24 23 23 23 21 21 20 18 16 15 15 15 15 13 12 10 8 7 6 6 4 2 2 2 2 3 2 1 2 2 3 4 5 6 7 8 9 9 10 11 12 14 16 16 16 15 15 15 16 16 16 17
20 20 20 19 19 19 19 20 19 19 19 19 19 20 19 17 16 15 14 13 13 14 16 16 15 17 20 21 21 21 19 18 20 21 23 25 25 23 23 22 18 16 17 17 17 16 14 12 10 8 7 6 5 4 3 3 2 0 1 1 1 2 3 4 5 4 5 7 9 9 10 11 12 14 15 16 15 15 15 15 16 16 16 16 17
20 21 21 21 21 20 19 19 20 20 20 20 21 21 20 20 17 15 14 13 11 9 10 10 8 6 8 12 15 17 15 15 19 24 27 28 26 24 23 22 19 17 18 18 18 17 14 12 10 9 8 7 5 4 4 3 1 0 0 1 1 2 3 4 5 5 6 8 9 10 11 13 14 14 15 15 15 15 15 15 16 16 16 16 16
21 21 20 20 20 20 19 19 19 20 20 20 20 20 20 22 23 21 18 19 19 17 11 7 4 2 4 8 10 10 9 9 15 24 28 27 25 24 23 22 20 19 19 18 17 16 14 11 10 9 7 6 5 4 3 2 1 1 1 1 1 2 3 4 5 6 7 8 9 10 12 14 14 15 15 15 16 16 15 15 15 16 16 16 16
21 21 21 20 20 19 20 20 19 19 19 20 20 19 18 19 22 25 24 24 27 27 23 17 12 7 6 7 6 5 5 6 11 19 24 25 25 24 24 23 20 18 18 18 15 13 12 10 9 8 6 5 4 3 2 2 2 2 2 1 2 2 3 4 5 7 8 8 10 12 13 13 14 14 15 15 16 16 16 15 15 15 15 16 17
22 21 21 21 21 20 20 20 20 20 19 19 19 20 19 16 16 20 23 24 25 25 25 26 23 17 12 11 10 9 9 8 9 16 23 24 24 23 22 20 17 17 18 16 12 10 10 8 8 7 6 5 4 4 3 3 3 2 2 2 2 2 3 4 6 7 7 9 11 12 12 13 14 15 15 15 16 16 16 16 15 16 16 16 17
22 22 22 22 21 21 21 20 19 20 20 19 19 20 21 19 15 14 16 20 21 20 20 24 26 23 21 21 19 16 14 11 11 17 22 23 21 19 18 16 16 18 17 13 10 9 9 8 7 7 6 6 5 4 4 4 4 3 2 2 2 3 4 5 6 6 7 9 12 12 12 13 14 14 15 15 15 16 16 16 16 16 16 17 17
22 23 23 23 22 22 21 20 19 19 19 19 19 19 20 21 18 14 13 13 14 16 19 23 24 22 22 23 21 19 19 18 16 19 24 24 20 18 18 18 19 19 16 10 9 10 9 8 8 7 6 6 5 5 5 5 4 3 2 2 3 3 4 6 6 6 7 10 12 12 12 13 13 14 15 15 15 16 16 16 16 16 16 17 17
21 22 24 25 25 23 22 21 19 18 18 18 18 18 19 20 19 17 14 13 12 13 14 18 21 22 22 23 23 23 23 21 20 22 26 27 24 22 23 22 21 19 13 9 9 10 9 8 8 7 6 6 6 6 6 5 4 2 1 1 3 4 5 6 6 7 9 11 11 12 12 13 13 14 15 16 16 16 16 16 16 16 17 17 17
19 20 22 23 24 23 23 22 20 18 17 17 17 17 18 18 18 17 15 13 13 12 11 11 14 20 22 22 23 23 22 22 23 25 28 29 28 27 25 22 19 16 12 10 10 10 9 8 8 7 7 7 7 7 6 5 3 2 0 2 3 4 5 6 6 7 9 10 11 11 12 13 14 15 15 16 16 16 17 17 17 17 17 17 17
19 19 19 19 20 20 21 21 21 18 16 16 16 16 16 17 17 16 15 13 12 12 11 11 12 14 15 15 17 19 19 21 24 26 28 30 29 25 20 17 16 15 12 11 11 10 9 8 8 7 8 7 7 6 5 4 3 2 0 2 3 4 5 6 6 7 8 9 11 12 13 13 14 15 15 16 17 16 17 17 17 17 17 18 18
19 19 19 19 20 20 19 18 19 18 16 14 15 16 16 15 15 15 16 14 11 9 9 11 11 11 10 11 14 17 19 22 25 28 31 30 26 20 15 14 15 14 12 11 11 10 9 8 8 8 8 7 6 6 4 3 2 1 1 3 3 4 6 7 6 6 7 9 10 12 12 13 14 15 15 16 17 17 17 17 17 17 18 18 17
19 19 20 19 19 20 20 17 16 16 14 13 13 14 15 15 15 15 16 15 11 8 8 9 9 10 13 16 18 21 24 25 26 31 35 30 21 15 13 14 14 13 12 11 11 9 9 8 8 8 8 7 7 5 4 3 2 1 2 3 4 4 5 6 6 6 7 9 10 12 13 14 15 16 16 16 16 16 17 17 17 17 17 18 17
19 18 18 17 13 16 18 15 13 12 11 11 12 13 13 13 13 13 14 14 11 9 9 8 8 11 15 18 19 22 24 23 23 29 32 25 16 12 14 14 13 12 12 11 10 9 9 9 9 9 8 8 7 5 3 2 1 1 2 3 4 4 5 5 6 6 8 9 10 12 13 14 16 16 16 15 15 16 17 17 17 17 17 18 18
17 17 16 13 7 9 13 13 11 10 9 9 10 11 12 13 12 11 12 11 10 9 9 7 8 11 15 17 18 21 23 24 25 27 25 19 14 14 14 13 12 12 11 10 9 9 9 9 9 9 8 8 6 4 3 2 2 3 3 4 4 5 5 5 5 6 8 9 10 12 14 15 16 16 15 15 16 16 17 17 17 17 17 17 17
15 14 13 10 4 3 7 9 9 9 8 8 8 9 11 12 11 11 10 9 8 8 8 8 11 13 17 21 22 22 21 22 23 22 18 15 15 15 14 13 13 12 10 9 9 9 9 9 9 8 8 7 5 4 3 3 3 4 4 4 4 5 6 6 5 6 8 9 11 12 14 15 15 16 16 16 16 17 16 17 17 17 17 17 17
13 12 11 9 5 0 2 4 6 7 7 5 5 6 9 10 11 11 9 7 7 8 9 11 13 16 22 25 23 18 16 18 19 17 16 15 15 14 13 12 12 11 10 10 9 9 9 9 9 8 7 6 4 4 4 4 5 5 5 5 5 5 6 6 6 7 9 10 11 12 13 14 15 16 16 16 16 16 17 17 17 17 17 16 16
12 11 10 8 7 4 2 0 1 3 4 3 2 3 6 8 10 10 8 7 7 9 10 12 14 19 25 26 19 14 15 18 18 16 15 15 15 14 13 12 12 11 10 9 9 9 9 9 8 8 7 5 5 5 4 5 5 5 5 6 5 5 5 6 7 8 10 12 12 12 13 15 16 15 15 15 16 17 17 17 17 17 17 16 16
12 12 11 9 8 7 6 4 2 3 3 3 4 5 6 7 8 9 8 8 8 10 12 13 15 21 26 24 17 13 16 18 18 17 16 16 15 13 13 12 12 11 10 9 9 9 9 8 8 8 7 5 5 4 4 4 4 5 6 7 6 6 6 8 9 10 11 12 12 11 13 15 15 14 15 16 17 17 18 18 18 18 17 17 17
12 11 11 11 10 9 8 6 5 5 5 5 6 8 8 8 9 9 8 8 10 11 12 14 17 21 23 19 14 12 15 18 19 18 17 16 14 13 13 12 11 11 10 9 9 9 9 8 8 8 7 5 4 4 3 3 4 5 7 8 8 8 9 10 10 10 11 11 11 11 12 14 14 14 16 17 17 17 18 18 18 18 17 17 17
14 12 12 12 12 11 10 9 8 7 7 7 7 8 8 8 8 8 9 9 11 12 14 15 18 20 20 16 12 13 16 19 20 20 19 18 16 14 13 12 11 10 9 9 9 8 8 7 7 7 6 5 3 3 3 2 3 5 6 7 8 10 11 10 10 10 11 10 10 11 13 13 13 14 16 17 17 17 18 18 18 17 17 16 16
15 14 13 12 12 12 12 11 10 10 10 10 10 10 9 9 9 9 9 10 12 13 15 16 18 20 21 19 17 17 20 23 23 21 20 18 16 15 13 11 10 9 8 8 8 8 7 7 7 6 5 4 3 2 1 2 3 4 5 6 7 10 11 11 10 10 10 9 10 12 13 12 13 15 16 17 17 18 18 18 18 17 16 16 16
15 15 14 13 13 12 12 12 11 11 11 12 12 12 12 12 12 12 12 13 14 15 16 17 19 21 23 23 22 22 23 24 22 19 16 15 14 12 11 9 8 8 8 8 7 7 6 6 6 7 5 4 3 1 1 2 4 5 6 7 7 9 10 10 10 9 9 9 10 13 13 12 12 14 16 17 17 17 17 17 17 17 16 16 15
14 14 14 14 13 13 12 12 12 12 13 13 14 14 14 13 14 15 15 15 16 17 17 18 22 24 24 23 23 23 22 21 18 16 14 12 11 9 8 8 8 7 7 7 6 5 4 4 5 5 5 5 4 2 2 3 4 6 7 8 8 8 9 10 9 9 9 9 10 12 12 11 12 14 15 16 16 16 16 16 17 17 16 16 16
13 13 13 13 13 13 13 13 13 13 13 14 14 15 15 15 15 16 15 16 17 19 19 20 23 24 23 21 20 19 18 16 15 14 12 10 9 8 8 7 6 6 6 6 6 5 4 4 3 3 3 3 4 3 3 4 5 6 8 8 7 7 8 9 9 8 8 8 9 11 12 12 13 14 14 15 16 16 16 16 16 16 16 16 15
Wind_Direction
194 194 191 189 187 183 181 180 179 176 171 170 179 174 141 133 146 150 159 170 157 148 145 141 143 142 140 137 133 132 128 124 125 124 124 124 124 127 130 128 124 121 124 125 127 134 134 128 126 124 121 118 125 129 127 126 125 123 124 121 114 111 116 121 124 126 127 136 138 123 124 134 101 89 102 101 84 76 76 72 36 22 324 289 324
196 192 189 186 182 181 182 185 189 187 183 184 187 177 156 151 164 173 176 179 170 158 153 153 154 152 151 147 143 141 137 134 133 130 130 129 127 131 135 134 130 130 135 137 138 142 146 145 140 140 136 131 147 150 139 151 157 141 136 131 122 118 123 130 134 137 142 155 160 145 140 157 135 112 110 104 93 171 71 48 28 15 2 319 305
200 195 193 191 185 184 187 192 197 193 190 192 190 179 169 165 175 185 186 187 186 172 161 162 162 158 156 153 149 149 147 146 144 140 138 137 137 139 141 140 137 139 147 152 153 154 159 162 158 160 162 157 173 162 148 177 184 144 137 134 130 128 121 126 138 145 148 159 175 171 153 159 164 147 150 144 103 297 289 349 9 13 0 347 307
196 197 199 201 197 197 201 202 199 196 197 201 198 187 179 179 183 187 188 192 195 191 179 171 168 166 164 161 160 160 158 157 156 153 152 151 150 150 153 159 160 164 168 166 165 168 175 182 181 182 186 187 195 189 177 195 194 155 154 157 152 145 140 146 151 152 152 156 175 181 166 177 181 165 209 220 218 258 271 278 310 337 347 344 323
184 191 196 200 203 207 208 204 201 203 206 206 204 198 187 186 190 191 193 194 195 198 192 181 176 175 173 170 169 167 165 164 162 161 162 163 164 165 171 179 188 196 202 202 202 200 200 204 201 198 201 205 207 206 200 207 209 192 186 184 172 164 173 189 170 160 168 161 163 176 183 190 188 177 272 288 273 279 293 282 279 291 318 331 319
176 183 189 196 203 208 207 205 206 209 209 206 205 204 204 208 208 204 203 199 197 199 198 192 186 181 178 176 172 168 165 162 157 156 158 159 162 167 172 188 203 211 215 219 222 223 222 223 220 215 214 216 219 218 212 215 222 219 217 220 200 176 188 207 195 189 193 173 171 183 190 197 207 207 228 320 310 303 329 322 298 287 307 323 318
174 182 187 195 204 210 213 215 215 215 211 206 205 206 209 213 215 213 208 203 203 203 200 197 192 185 181 176 171 166 161 155 150 147 149 149 147 149 172 208 227 230 234 236 233 232 235 235 234 230 227 227 227 227 223 219 224 229 226 228 225 204 207 227 230 225 224 220 225 227 211 203 222 243 254 292 286 295 340 336 322 312 313 319 317
172 183 190 198 209 217 222 224 223 221 217 211 209 208 207 207 210 211 209 207 211 211 205 199 191 185 179 173 169 164 158 156 155 151 144 136 112 66 30 342 304 275 258 253 247 245 247 246 245 243 240 238 237 237 234 224 222 228 223 218 220 218 221 231 238 246 253 260 270 274 269 261 257 278 295 306 312 323 339 334 321 316 315 316 314
167 179 192 208 218 223 229 229 226 224 221 219 217 210 206 206 208 210 208 205 207 209 205 197 188 183 179 172 172 174 173 176 180 175 163 149 120 48 22 351 317 302 287 273 262 257 258 257 254 250 243 241 242 242 239 232 231 236 231 218 214 222 234 235 236 248 259 266 272 274 278 283 286 294 300 308 327 329 328 324 318 316 314 312 312
134 158 176 205 225 231 236 237 234 230 228 229 229 223 219 215 210 212 213 208 204 202 199 193 186 184 181 176 179 187 191 196 203 203 195 183 194 342 359 345 314 303 293 284 276 268 265 262 256 257 259 260 260 255 246 240 240 245 244 228 216 222 236 239 242 251 259 269 276 274 280 293 299 300 299 302 320 323 324 324 319 317 315 310 312
94 109 114 146 224 239 243 246 248 246 240 238 235 234 237 231 219 215 214 209 204 198 195 194 191 189 188 185 188 196 201 206 211 212 209 209 236 274 306 317 301 292 282 279 280 277 273 266 258 267 274 275 272 268 261 252 245 244 242 233 228 231 234 237 243 249 255 267 275 272 275 287 284 277 288 300 315 318 322 323 317 315 315 312 311
69 66 67 99 216 239 246 253 258 258 255 250 243 239 241 240 234 226 213 203 201 201 201 201 197 196 198 199 202 210 220 227 225 220 218 221 229 243 267 279 272 275 277 276 278 279 278 274 266 268 270 267 269 271 272 268 254 242 235 230 230 233 233 231 232 238 254 266 272 272 272 282 282 278 285 310 322 317 313 314 314 312 308 306 305
67 61 55 46 4 271 254 252 256 260 260 256 252 247 245 244 243 238 223 210 208 210 210 206 202 204 209 214 220 225 236 245 243 234 232 231 226 226 236 239 238 251 258 260 266 269 274 278 270 263 263 268 272 264 263 267 259 242 230 226 227 230 229 228 225 227 242 259 274 277 271 279 292 289 273 291 311 313 309 311 313 307 301 300 299
57 56 53 46 36 6 289 260 256 260 258 253 250 246 245 245 245 243 233 220 213 209 208 206 207 214 219 223 228 230 234 245 248 237 230 227 219 213 218 220 220 229 232 231 233 230 230 236 225 208 232 266 255 220 208 242 256 246 227 218 220 222 223 223 222 227 239 254 279 288 277 275 291 290 274 284 296 301 302 307 307 301 296 294 292
36 37 38 37 34 25 3 317 278 268 261 257 253 247 244 244 245 243 235 225 218 213 211 212 217 226 228 225 229 232 232 237 238 226 216 211 205 201 203 201 195 194 195 195 188 178 174 156 130 116 124 226 243 229 192 183 210 212 188 181 184 190 198 206 210 217 226 235 259 273 253 258 265 259 269 283 288 290 294 296 294 290 288 288 287
16 19 21 20 19 16 9 357 328 296 276 264 257 251 246 242 241 242 235 229 227 224 223 223 225 229 230 227 228 229 228 230 226 212 201 196 190 187 185 179 173 169 163 157 149 145 140 124 107 103 106 122 175 156 151 151 152 152 152 152 155 173 196 209 217 227 237 242 246 248 253 264 269 268 273 279 280 284 291 290 286 284 284 286 289
359 3 6 5 2 358 355 353 346 327 300 279 266 259 252 243 238 238 234 230 230 230 229 229 228 228 230 231 228 225 225 224 216 203 193 186 178 175 175 170 163 159 151 144 143 150 150 137 117 108 112 110 97 100 113 125 138 147 151 152 150 164 200 221 232 244 253 256 258 261 267 275 279 280 283 284 282 284 288 288 289 290 289 289 291
349 351 352 351 348 344 341 340 340 335 320 298 281 269 259 249 240 236 232 231 232 234 236 234 231 229 229 230 227 225 224 216 205 196 188 180 172 172 173 165 158 154 148 142 140 145 149 143 129 124 129 122 110 102 106 115 133 148 153 160 159 158 187 223 245 260 267 274 279 281 285 289 291 291 290 288 287 288 284 282 287 291 288 286 289
340 339 339 338 336 334 333 332 331 330 325 314 298 282 267 255 246 238 233 233 238 244 244 241 236 230 229 232 228 215 205 199 196 192 184 175 171 173 172 163 159 159 154 146 137 133 138 142 136 129 128 127 123 121 121 123 136 158 169 191 198 177 167 183 212 243 266 282 288 291 295 296 296 294 287 285 292 296 285 275 278 284 284 285 290
327 325 326 326 325 324 323 324 326 325 321 317 307 293 276 262 252 242 235 235 240 244 243 241 237 231 230 231 225 213 204 196 190 187 182 176 173 172 172 168 164 163 160 151 143 137 132 133 134 129 126 130 129 129 140 141 138 143 174 215 199 167 155 181 221 241 255 269 274 277 280 281 279 275 269 272 284 290 279 268 270 278 283 286 288
315 314 312 312 313 314 313 315 319 318 315 314 308 297 282 266 253 242 235 231 229 231 234 237 235 228 226 225 219 215 209 194 182 182 183 178 173 171 173 174 169 165 164 159 153 147 138 136 142 141 137 140 140 137 153 160 153 150 163 185 187 180 176 230 269 279 275 268 272 275 276 273 270 269 268 268 271 274 272 268 270 276 283 286 288
309 307 303 300 300 303 304 305 308 308 306 307 306 299 287 274 258 242 235 229 221 216 216 220 220 209 205 213 214 210 202 186 177 181 184 179 175 173 172 173 171 166 163 161 155 146 141 145 153 154 152 157 159 158 168 174 176 183 185 194 227 252 269 277 285 287 280 277 282 284 283 284 281 279 280 280 278 279 278 276 277 281 282 283 284
304 301 299 296 295 294 294 295 297 297 297 298 297 293 289 282 266 245 235 225 218 214 206 200 197 182 172 178 191 194 190 183 180 183 184 179 177 176 172 170 169 164 161 159 150 139 144 156 162 161 161 163 161 160 168 174 183 211 218 262 295 317 328 296 281 286 287 288 289 289 288 291 291 289 290 290 289 290 288 284 286 287 285 283 281
298 294 291 289 288 286 285 285 285 285 287 288 288 283 280 278 267 251 237 220 212 216 209 196 189 179 168 165 171 178 186 189 187 184 181 180 179 178 176 171 165 160 155 150 142 139 151 164 165 161 161 162 158 154 151 152 109 43 2 342 353 5 347 290 285 291 291 288 289 292 293 296 297 296 297 298 298 297 295 292 291 290 288 286 284
295 291 287 284 282 280 278 277 275 275 275 275 276 274 272 270 262 249 240 228 218 218 210 193 184 177 168 168 176 181 188 194 191 184 181 182 180 179 177 172 167 159 148 144 150 159 165 166 161 159 159 150 128 120 121 110 73 21 11 17 27 19 314 299 298 295 294 293 295 297 298 300 299 296 299 303 301 298 297 297 295 293 291 289 287
296 292 289 285 281 278 274 271 269 268 266 263 263 263 262 262 260 252 244 237 231 228 218 200 191 184 173 174 180 183 185 188 186 182 181 181 179 178 177 174 171 166 159 159 164 165 163 160 157 156 152 134 122 131 136 94 43 22 19 31 40 335 306 312 306 298 298 301 302 301 302 302 300 297 302 305 302 300 301 301 299 296 295 293 292
294 291 290 288 284 280 274 270 267 263 260 256 254 254 253 253 254 251 246 241 237 235 229 214 204 198 188 179 178 180 180 178 176 175 178 179 177 175 174 173 171 169 163 160 160 159 158 159 160 158 152 147 149 157 142 76 60 38 27 37 23 332 327 330 320 306 300 304 307 306 306 305 301 301 305 305 301 300 301 300 297 296 295 295 293
291 289 288 287 285 282 277 274 269 263 258 254 251 249 246 244 245 248 249 249 244 240 235 225 214 208 199 187 179 178 178 175 171 171 175 176 173 169 170 169 164 157 153 152 155 159 157 153 152 153 152 151 156 160 147 130 131 124 348 333 303 310 324 331 328 311 300 307 311 309 308 308 307 307 308 305 300 300 300 298 295 294 294 294 293
285 285 285 284 282 281 279 275 270 264 260 256 253 248 240 236 239 243 244 247 251 252 243 228 212 197 181 170 169 172 173 175 178 181 183 180 174 168 168 166 157 153 158 159 155 154 152 152 156 160 160 162 166 167 164 162 166 150 26 321 283 291 316 320 316 312 312 315 313 311 312 312 309 308 307 304 301 301 301 299 297 295 295 294 292
279 277 278 278 278 278 278 277 272 268 263 258 254 248 238 233 234 236 237 240 244 246 244 233 223 184 133 134 142 152 157 169 184 188 186 181 174 168 166 165 160 159 164 162 153 150 155 161 164 164 164 170 175 175 169 175 208 204 192 236 259 283 312 312 312 317 318 313 310 312 313 310 307 306 305 303 302 302 301 300 298 296 295 294 292
276 272 269 269 270 270 272 275 274 270 266 261 255 248 239 231 230 232 236 240 243 243 242 241 243 239 196 170 171 189 210 218 204 192 182 175 174 173 170 168 164 160 159 156 153 156 161 162 161 164 168 173 174 173 174 192 217 214 212 229 247 276 302 309 314 320 318 314 315 316 313 309 306 305 304 303 302 301 302 301 299 297 295 294 293
274 270 267 267 266 264 265 270 270 267 265 263 257 251 243 232 225 225 228 233 237 239 237 236 239 241 228 213 219 242 251 243 214 197 188 182 181 179 171 163 158 155 155 156 156 158 161 159 159 164 169 173 175 174 180 188 189 198 223 248 269 294 307 311 314 315 316 319 320 316 312 310 307 304 303 303 302 302 302 301 300 299 297 294 293
273 270 266 265 264 261 259 261 265 264 261 257 255 251 244 238 230 216 212 221 229 228 225 229 234 237 233 226 228 238 237 214 193 196 195 190 184 176 163 153 152 154 156 159 159 157 159 161 164 167 171 176 176 172 174 177 176 184 221 265 298 308 311 315 313 309 315 321 320 315 312 312 310 308 308 307 304 302 301 300 300 299 297 295 295
272 269 265 261 260 259 256 256 259 263 261 256 253 250 244 240 236 221 198 196 210 216 217 221 226 229 227 221 216 215 210 200 196 198 194 188 184 175 159 152 157 160 159 159 161 160 159 163 167 169 170 172 171 169 170 169 170 184 213 269 305 314 323 324 320 317 321 323 321 317 315 316 316 314 312 309 306 303 301 300 300 298 296 297 297
272 268 264 261 257 254 252 252 255 259 260 257 253 251 246 240 237 232 216 195 188 195 203 211 216 218 215 207 200 197 198 201 206 204 197 191 185 172 159 156 161 165 164 163 165 163 162 165 168 169 169 169 168 168 166 164 171 187 210 294 318 325 330 326 324 324 324 323 323 321 319 319 318 316 313 309 306 303 300 298 298 297 297 298 297
274 268 264 261 255 250 247 246 247 251 256 258 256 254 249 240 234 232 226 212 200 190 177 177 196 206 207 208 207 204 204 208 209 202 195 188 178 166 159 159 164 167 168 168 166 162 160 163 167 168 168 166 164 164 162 163 171 180 207 327 324 330 331 328 331 333 329 327 327 327 324 322 321 319 315 310 305 303 301 298 297 296 296 296 294
277 271 266 260 255 250 245 242 241 242 247 254 258 256 249 239 233 230 225 217 206 192 168 153 168 187 196 205 209 204 201 204 203 196 189 180 171 165 163 162 162 164 167 166 161 157 158 163 167 165 162 161 162 161 160 161 164 159 9 333 328 330 327 323 327 331 329 330 333 331 328 325 322 320 316 311 307 305 303 300 298 297 296 295 293
291 287 281 274 263 253 245 239 237 237 238 245 252 252 245 235 229 227 224 216 200 183 166 155 154 157 157 169 187 190 183 179 180 179 176 173 170 169 167 161 158 160 162 159 156 158 160 161 161 160 159 161 163 164 162 158 151 131 1 337 326 320 315 313 313 316 320 328 335 335 330 326 324 322 317 311 307 305 304 303 301 299 299 299 296
311 305 301 297 277 252 239 235 233 232 232 237 243 245 243 235 227 223 221 214 199 182 174 164 151 143 145 153 162 167 163 161 164 166 167 169 174 173 162 156 155 155 154 153 154 158 159 156 156 158 159 161 164 165 158 146 130 79 0 344 329 320 319 317 318 324 330 335 338 336 331 326 324 321 316 312 308 306 306 305 302 300 300 298 295
323 318 318 318 289 244 229 226 226 226 228 233 237 238 234 230 225 221 218 213 199 182 179 168 141 140 154 160 161 159 154 152 158 163 163 166 171 164 152 151 150 147 148 150 153 156 157 155 153 153 155 158 162 157 143 127 96 41 8 349 333 325 321 317 323 335 339 337 336 334 331 327 323 320 316 312 308 305 305 304 303 302 301 298 296
333 331 335 337 308 228 213 213 216 221 228 235 239 233 222 218 220 219 215 208 190 172 169 154 130 141 162 170 168 163 154 149 154 161 163 163 160 151 145 144 141 141 145 149 151 154 155 153 151 150 150 151 152 144 129 106 60 32 12 352 339 331 323 319 325 335 335 333 334 333 329 324 321 318 314 311 308 306 306 307 307 308 307 305 303
343 346 351 355 351 209 206 209 214 223 235 246 246 228 211 208 212 212 207 198 177 160 151 133 126 144 160 160 154 153 153 152 156 161 161 156 148 141 137 137 137 140 145 149 151 153 151 148 150 151 145 140 138 130 115 83 50 32 13 358 346 333 326 325 330 333 330 328 330 329 325 321 319 317 314 313 313 313 313 312 312 313 312 312 311
353 359 5 11 16 16 216 220 222 223 231 250 253 228 213 210 208 200 189 171 149 139 135 129 130 142 152 150 144 141 145 149 151 153 152 146 138 133 132 135 137 139 142 144 146 147 146 147 152 153 143 130 118 106 91 68 47 33 16 4 351 335 330 331 332 330 327 326 327 327 325 322 320 318 318 319 319 318 316 315 316 317 316 316 315
5 8 13 19 23 28 39 5 222 204 201 204 189 194 212 216 204 187 172 153 134 126 129 130 132 141 148 149 144 138 141 143 143 145 144 138 133 132 134 134 132 133 135 135 136 139 144 150 155 154 144 125 105 92 82 66 52 38 21 10 358 340 330 331 332 329 330 332 333 331 327 325 323 321 320 321 322 321 319 319 319 319 319 320 318
15 17 21 26 27 33 45 53 70 116 145 152 149 162 191 202 185 168 159 147 131 124 126 129 135 144 149 146 140 139 142 140 136 134 131 127 127 132 133 128 126 127 127 125 128 138 148 155 158 156 148 127 103 90 78 66 55 38 23 17 12 354 339 339 340 336 335 339 339 330 323 323 324 322 320 322 323 323 322 322 322 321 321 321 318
20 21 27 32 31 35 44 50 64 95 117 132 142 151 163 167 159 152 148 137 127 124 124 126 133 141 143 137 129 134 138 131 126 124 121 117 118 121 122 121 122 123 121 119 124 138 152 158 157 154 148 131 109 97 85 63 37 20 12 10 7 0 354 349 345 341 340 344 342 331 323 320 319 320 322 324 324 324 323 323 323 323 322 320 318
27 27 31 36 39 43 46 49 61 82 98 107 117 127 133 135 135 132 127 121 118 119 122 125 129 134 134 129 124 128 130 128 128 129 127 124 121 119 118 119 119 117 120 124 130 141 152 155 153 154 154 145 127 111 95 58 19 10 6 358 353 354 354 350 345 345 347 348 345 340 334 325 317 321 327 328 327 327 326 325 325 326 324 323 321
31 32 34 37 43 48 48 48 57 72 83 87 88 89 92 100 109 113 115 117 118 120 125 128 129 130 132 132 131 131 132 133 132 132 132 132 130 125 120 120 121 123 130 137 141 145 148 149 151 156 158 155 146 128 74 17 3 2 356 344 340 345 348 349 348 347 349 350 348 348 343 329 315 319 328 330 329 329 327 327 328 329 328 328 327
37 38 37 38 43 48 47 48 54 63 70 75 76 76 79 85 92 97 104 111 116 120 124 125 125 126 129 131 132 132 133 132 128 123 121 124 126 123 120 123 130 135 140 144 147 150 155 161 165 166 166 171 180 197 311 339 345 346 342 337 336 339 345 349 349 347 348 352 351 350 345 329 315 319 328 331 332 332 330 330 331 331 331 331 332
44 43 40 39 43 47 49 53 57 59 63 68 73 78 82 85 88 93 98 103 105 107 109 113 119 123 125 126 129 130 130 126 122 119 116 117 120 123 125 129 134 138 141 143 142 140 143 157 165 168 176 190 203 229 298 318 328 336 338 338 337 337 342 348 349 347 349 351 349 350 348 335 320 322 329 333 335 335 335 334 334 334 334 335 336
53 50 46 45 46 47 50 55 57 58 62 67 71 74 78 81 83 88 91 93 97 101 104 109 115 118 120 122 126 127 124 118 117 119 120 122 124 127 128 131 134 136 136 136 132 127 124 129 132 139 169 196 208 231 276 303 319 331 338 339 337 336 342 346 347 346 346 345 346 350 349 335 321 322 330 335 337 338 338 337 337 337 338 340 340